<?xml version="1.0" encoding="UTF-8" standalone="no" ?>
<gpx xmlns="http://www.topografix.com/GPX/1/1" xmlns:xsi="http://www.w3.org/2001/XMLSchema-instance" xsi:schemaLocation="http://www.topografix.com/GPX/1/1 http://www.topografix.com/GPX/1/1/gpx.xsd" version="1.1" creator="VisuGPX - https://www.visugpx.com">
  <metadata>
    <name>Parcours VTT FFC Saillans</name>
  </metadata>
  <trk>
    <name><![CDATA[VTT N°2 bleu - Les trois cols - 16 km - Déniv 430 m]]></name>
    <extensions>
      <line xmlns="http://www.topografix.com/GPX/gpx_style/0/2">
        <color>001eff</color>
        <width>4</width>
      </line>
    </extensions>
    <trkseg>
      <trkpt lat="44.69704" lon="5.19979">
        <ele>268</ele>
        <time>2022-11-17T10:03:27Z</time>
      </trkpt>
      <trkpt lat="44.69734" lon="5.2">
        <ele>270</ele>
        <time>2022-11-17T10:03:27Z</time>
      </trkpt>
      <trkpt lat="44.69737" lon="5.20009">
        <ele>271</ele>
        <time>2022-11-17T10:03:27Z</time>
      </trkpt>
      <trkpt lat="44.69746" lon="5.20012">
        <ele>272</ele>
        <time>2022-11-17T10:03:27Z</time>
      </trkpt>
      <trkpt lat="44.69781" lon="5.19965">
        <ele>274</ele>
        <time>2022-11-17T10:03:27Z</time>
      </trkpt>
      <trkpt lat="44.69839" lon="5.19904">
        <ele>277</ele>
        <time>2022-11-17T10:03:27Z</time>
      </trkpt>
      <trkpt lat="44.6991" lon="5.19807">
        <ele>279</ele>
        <time>2022-11-17T10:03:27Z</time>
      </trkpt>
      <trkpt lat="44.69971" lon="5.19785">
        <ele>282</ele>
        <time>2022-11-17T10:03:27Z</time>
      </trkpt>
      <trkpt lat="44.70046" lon="5.19789">
        <ele>285</ele>
        <time>2022-11-17T10:03:27Z</time>
      </trkpt>
      <trkpt lat="44.70137" lon="5.19778">
        <ele>286</ele>
        <time>2022-11-17T10:03:27Z</time>
      </trkpt>
      <trkpt lat="44.70213" lon="5.19799">
        <ele>288</ele>
        <time>2022-11-17T10:03:27Z</time>
      </trkpt>
      <trkpt lat="44.70238" lon="5.1979">
        <ele>288</ele>
        <time>2022-11-17T10:03:27Z</time>
      </trkpt>
      <trkpt lat="44.70339" lon="5.19803">
        <ele>290</ele>
      </trkpt>
      <trkpt lat="44.7044" lon="5.19816">
        <ele>295</ele>
        <time>2022-11-17T10:03:27Z</time>
      </trkpt>
      <trkpt lat="44.70451" lon="5.1981">
        <ele>297</ele>
        <time>2022-11-17T10:03:27Z</time>
      </trkpt>
      <trkpt lat="44.70532" lon="5.1973">
        <ele>302</ele>
        <time>2022-11-17T10:03:27Z</time>
      </trkpt>
      <trkpt lat="44.70559" lon="5.19674">
        <ele>304</ele>
        <time>2022-11-17T10:03:27Z</time>
      </trkpt>
      <trkpt lat="44.70582" lon="5.19659">
        <ele>306</ele>
        <time>2022-11-17T10:03:27Z</time>
      </trkpt>
      <trkpt lat="44.70628" lon="5.1966">
        <ele>310</ele>
        <time>2022-11-17T10:03:27Z</time>
      </trkpt>
      <trkpt lat="44.7071" lon="5.19691">
        <ele>314</ele>
      </trkpt>
      <trkpt lat="44.70791" lon="5.19721">
        <ele>320</ele>
        <time>2022-11-17T10:03:27Z</time>
      </trkpt>
      <trkpt lat="44.70835" lon="5.19713">
        <ele>322</ele>
        <time>2022-11-17T10:03:27Z</time>
      </trkpt>
      <trkpt lat="44.70865" lon="5.19696">
        <ele>321</ele>
        <time>2022-11-17T10:03:27Z</time>
      </trkpt>
      <trkpt lat="44.70888" lon="5.19692">
        <ele>321</ele>
        <time>2022-11-17T10:03:27Z</time>
      </trkpt>
      <trkpt lat="44.70901" lon="5.19684">
        <ele>321</ele>
        <time>2022-11-17T10:03:27Z</time>
      </trkpt>
      <trkpt lat="44.70938" lon="5.19646">
        <ele>319</ele>
        <time>2022-11-17T10:03:27Z</time>
      </trkpt>
      <trkpt lat="44.7095" lon="5.19643">
        <ele>318</ele>
        <time>2022-11-17T10:03:27Z</time>
      </trkpt>
      <trkpt lat="44.70959" lon="5.19637">
        <ele>317</ele>
        <time>2022-11-17T10:03:27Z</time>
      </trkpt>
      <trkpt lat="44.70963" lon="5.19619">
        <ele>316</ele>
        <time>2022-11-17T10:03:27Z</time>
      </trkpt>
      <trkpt lat="44.70963" lon="5.19609">
        <ele>316</ele>
        <time>2022-11-17T10:03:27Z</time>
      </trkpt>
      <trkpt lat="44.70944" lon="5.19588">
        <ele>315</ele>
        <time>2022-11-17T10:03:27Z</time>
      </trkpt>
      <trkpt lat="44.70941" lon="5.19574">
        <ele>315</ele>
        <time>2022-11-17T10:03:27Z</time>
      </trkpt>
      <trkpt lat="44.70953" lon="5.19536">
        <ele>315</ele>
        <time>2022-11-17T10:03:27Z</time>
      </trkpt>
      <trkpt lat="44.7102" lon="5.19446">
        <ele>319</ele>
        <time>2022-11-17T10:03:27Z</time>
      </trkpt>
      <trkpt lat="44.71025" lon="5.19428">
        <ele>322</ele>
        <time>2022-11-17T10:03:27Z</time>
      </trkpt>
      <trkpt lat="44.71024" lon="5.19417">
        <ele>323</ele>
        <time>2022-11-17T10:03:27Z</time>
      </trkpt>
      <trkpt lat="44.71028" lon="5.19398">
        <ele>325</ele>
        <time>2022-11-17T10:03:27Z</time>
      </trkpt>
      <trkpt lat="44.71068" lon="5.19304">
        <ele>327</ele>
        <time>2022-11-17T10:03:27Z</time>
      </trkpt>
      <trkpt lat="44.71085" lon="5.19283">
        <ele>329</ele>
        <time>2022-11-17T10:03:27Z</time>
      </trkpt>
      <trkpt lat="44.71128" lon="5.19261">
        <ele>331</ele>
        <time>2022-11-17T10:03:27Z</time>
      </trkpt>
      <trkpt lat="44.71253" lon="5.19218">
        <ele>335</ele>
      </trkpt>
      <trkpt lat="44.71316" lon="5.19197">
        <ele>337</ele>
      </trkpt>
      <trkpt lat="44.71378" lon="5.19175">
        <ele>339</ele>
        <time>2022-11-17T10:03:27Z</time>
      </trkpt>
      <trkpt lat="44.71477" lon="5.19111">
        <ele>340</ele>
        <time>2022-11-17T10:03:27Z</time>
      </trkpt>
      <trkpt lat="44.71493" lon="5.1911">
        <ele>341</ele>
        <time>2022-11-17T10:03:27Z</time>
      </trkpt>
      <trkpt lat="44.71571" lon="5.19135">
        <ele>345</ele>
      </trkpt>
      <trkpt lat="44.71648" lon="5.1916">
        <ele>351</ele>
        <time>2022-11-17T10:03:27Z</time>
      </trkpt>
      <trkpt lat="44.7168" lon="5.19194">
        <ele>355</ele>
        <time>2022-11-17T10:03:27Z</time>
      </trkpt>
      <trkpt lat="44.71691" lon="5.19196">
        <ele>359</ele>
        <time>2022-11-17T10:03:27Z</time>
      </trkpt>
      <trkpt lat="44.71697" lon="5.1919">
        <ele>361</ele>
        <time>2022-11-17T10:03:27Z</time>
      </trkpt>
      <trkpt lat="44.71704" lon="5.19202">
        <ele>363</ele>
        <time>2022-11-17T10:03:27Z</time>
      </trkpt>
      <trkpt lat="44.717" lon="5.19213">
        <ele>365</ele>
        <time>2022-11-17T10:03:27Z</time>
      </trkpt>
      <trkpt lat="44.71686" lon="5.19215">
        <ele>366</ele>
        <time>2022-11-17T10:03:27Z</time>
      </trkpt>
      <trkpt lat="44.71622" lon="5.19198">
        <ele>366</ele>
        <time>2022-11-17T10:03:27Z</time>
      </trkpt>
      <trkpt lat="44.71576" lon="5.19226">
        <ele>367</ele>
        <time>2022-11-17T10:03:27Z</time>
      </trkpt>
      <trkpt lat="44.71567" lon="5.19244">
        <ele>376</ele>
        <time>2022-11-17T10:03:27Z</time>
      </trkpt>
      <trkpt lat="44.71558" lon="5.19254">
        <ele>377</ele>
        <time>2022-11-17T10:03:27Z</time>
      </trkpt>
      <trkpt lat="44.71551" lon="5.19256">
        <ele>377</ele>
        <time>2022-11-17T10:03:27Z</time>
      </trkpt>
      <trkpt lat="44.71492" lon="5.19247">
        <ele>377</ele>
        <time>2022-11-17T10:03:27Z</time>
      </trkpt>
      <trkpt lat="44.71476" lon="5.19256">
        <ele>377</ele>
        <time>2022-11-17T10:03:27Z</time>
      </trkpt>
      <trkpt lat="44.71429" lon="5.19306">
        <ele>381</ele>
        <time>2022-11-17T10:03:27Z</time>
      </trkpt>
      <trkpt lat="44.7142" lon="5.19312">
        <ele>384</ele>
        <time>2022-11-17T10:03:27Z</time>
      </trkpt>
      <trkpt lat="44.71391" lon="5.19312">
        <ele>387</ele>
        <time>2022-11-17T10:03:27Z</time>
      </trkpt>
      <trkpt lat="44.71185" lon="5.19413">
        <ele>396</ele>
        <time>2022-11-17T10:03:27Z</time>
      </trkpt>
      <trkpt lat="44.71178" lon="5.19421">
        <ele>399</ele>
        <time>2022-11-17T10:03:27Z</time>
      </trkpt>
      <trkpt lat="44.71173" lon="5.19438">
        <ele>401</ele>
        <time>2022-11-17T10:03:27Z</time>
      </trkpt>
      <trkpt lat="44.71174" lon="5.19449">
        <ele>403</ele>
        <time>2022-11-17T10:03:27Z</time>
      </trkpt>
      <trkpt lat="44.71221" lon="5.19581">
        <ele>405</ele>
        <time>2022-11-17T10:03:27Z</time>
      </trkpt>
      <trkpt lat="44.71234" lon="5.19587">
        <ele>407</ele>
        <time>2022-11-17T10:03:27Z</time>
      </trkpt>
      <trkpt lat="44.71288" lon="5.19586">
        <ele>411</ele>
        <time>2022-11-17T10:03:27Z</time>
      </trkpt>
      <trkpt lat="44.71308" lon="5.19593">
        <ele>414</ele>
        <time>2022-11-17T10:03:27Z</time>
      </trkpt>
      <trkpt lat="44.71333" lon="5.19613">
        <ele>417</ele>
        <time>2022-11-17T10:03:27Z</time>
      </trkpt>
      <trkpt lat="44.71352" lon="5.19662">
        <ele>418</ele>
        <time>2022-11-17T10:03:27Z</time>
      </trkpt>
      <trkpt lat="44.71376" lon="5.1969">
        <ele>419</ele>
        <time>2022-11-17T10:03:27Z</time>
      </trkpt>
      <trkpt lat="44.71401" lon="5.19701">
        <ele>419</ele>
        <time>2022-11-17T10:03:27Z</time>
      </trkpt>
      <trkpt lat="44.71458" lon="5.19711">
        <ele>420</ele>
        <time>2022-11-17T10:03:27Z</time>
      </trkpt>
      <trkpt lat="44.71466" lon="5.19707">
        <ele>420</ele>
        <time>2022-11-17T10:03:27Z</time>
      </trkpt>
      <trkpt lat="44.71529" lon="5.1966">
        <ele>421</ele>
        <time>2022-11-17T10:03:27Z</time>
      </trkpt>
      <trkpt lat="44.71582" lon="5.19644">
        <ele>423</ele>
        <time>2022-11-17T10:03:27Z</time>
      </trkpt>
      <trkpt lat="44.71627" lon="5.19649">
        <ele>424</ele>
        <time>2022-11-17T10:03:27Z</time>
      </trkpt>
      <trkpt lat="44.7174" lon="5.1959">
        <ele>423</ele>
        <time>2022-11-17T10:03:27Z</time>
      </trkpt>
      <trkpt lat="44.7191" lon="5.19538">
        <ele>415</ele>
        <time>2022-11-17T10:03:27Z</time>
      </trkpt>
      <trkpt lat="44.71943" lon="5.19565">
        <ele>410</ele>
        <time>2022-11-17T10:03:27Z</time>
      </trkpt>
      <trkpt lat="44.71956" lon="5.19568">
        <ele>406</ele>
        <time>2022-11-17T10:03:27Z</time>
      </trkpt>
      <trkpt lat="44.71966" lon="5.19567">
        <ele>404</ele>
        <time>2022-11-17T10:03:27Z</time>
      </trkpt>
      <trkpt lat="44.72012" lon="5.19527">
        <ele>401</ele>
        <time>2022-11-17T10:03:27Z</time>
      </trkpt>
      <trkpt lat="44.72142" lon="5.19511">
        <ele>395</ele>
        <time>2022-11-17T10:03:27Z</time>
      </trkpt>
      <trkpt lat="44.72149" lon="5.19526">
        <ele>392</ele>
        <time>2022-11-17T10:03:27Z</time>
      </trkpt>
      <trkpt lat="44.72157" lon="5.19528">
        <ele>390</ele>
        <time>2022-11-17T10:03:27Z</time>
      </trkpt>
      <trkpt lat="44.72332" lon="5.19445">
        <ele>393</ele>
        <time>2022-11-17T10:03:27Z</time>
      </trkpt>
      <trkpt lat="44.72388" lon="5.19401">
        <ele>395</ele>
        <time>2022-11-17T10:03:27Z</time>
      </trkpt>
      <trkpt lat="44.72384" lon="5.19296">
        <ele>393</ele>
        <time>2022-11-17T10:03:27Z</time>
      </trkpt>
      <trkpt lat="44.72387" lon="5.19283">
        <ele>392</ele>
        <time>2022-11-17T10:03:27Z</time>
      </trkpt>
      <trkpt lat="44.72387" lon="5.19271">
        <ele>393</ele>
        <time>2022-11-17T10:03:27Z</time>
      </trkpt>
      <trkpt lat="44.72383" lon="5.19257">
        <ele>393</ele>
        <time>2022-11-17T10:03:27Z</time>
      </trkpt>
      <trkpt lat="44.72384" lon="5.19239">
        <ele>393</ele>
        <time>2022-11-17T10:03:27Z</time>
      </trkpt>
      <trkpt lat="44.72389" lon="5.19228">
        <ele>394</ele>
        <time>2022-11-17T10:03:27Z</time>
      </trkpt>
      <trkpt lat="44.72388" lon="5.19205">
        <ele>394</ele>
        <time>2022-11-17T10:03:27Z</time>
      </trkpt>
      <trkpt lat="44.7239" lon="5.19193">
        <ele>395</ele>
        <time>2022-11-17T10:03:27Z</time>
      </trkpt>
      <trkpt lat="44.72389" lon="5.19164">
        <ele>397</ele>
        <time>2022-11-17T10:03:27Z</time>
      </trkpt>
      <trkpt lat="44.72394" lon="5.19142">
        <ele>398</ele>
        <time>2022-11-17T10:03:27Z</time>
      </trkpt>
      <trkpt lat="44.72402" lon="5.19135">
        <ele>400</ele>
        <time>2022-11-17T10:03:27Z</time>
      </trkpt>
      <trkpt lat="44.7241" lon="5.1912">
        <ele>402</ele>
        <time>2022-11-17T10:03:27Z</time>
      </trkpt>
      <trkpt lat="44.72416" lon="5.19084">
        <ele>405</ele>
        <time>2022-11-17T10:03:27Z</time>
      </trkpt>
      <trkpt lat="44.72376" lon="5.18984">
        <ele>408</ele>
        <time>2022-11-17T10:03:27Z</time>
      </trkpt>
      <trkpt lat="44.72376" lon="5.18972">
        <ele>418</ele>
        <time>2022-11-17T10:03:27Z</time>
      </trkpt>
      <trkpt lat="44.72384" lon="5.18937">
        <ele>419</ele>
        <time>2022-11-17T10:03:27Z</time>
      </trkpt>
      <trkpt lat="44.7238" lon="5.18918">
        <ele>419</ele>
        <time>2022-11-17T10:03:27Z</time>
      </trkpt>
      <trkpt lat="44.72367" lon="5.18915">
        <ele>420</ele>
        <time>2022-11-17T10:03:27Z</time>
      </trkpt>
      <trkpt lat="44.72338" lon="5.18942">
        <ele>421</ele>
        <time>2022-11-17T10:03:27Z</time>
      </trkpt>
      <trkpt lat="44.72302" lon="5.19086">
        <ele>425</ele>
        <time>2022-11-17T10:03:27Z</time>
      </trkpt>
      <trkpt lat="44.72295" lon="5.19087">
        <ele>427</ele>
        <time>2022-11-17T10:03:27Z</time>
      </trkpt>
      <trkpt lat="44.72293" lon="5.19075">
        <ele>429</ele>
        <time>2022-11-17T10:03:27Z</time>
      </trkpt>
      <trkpt lat="44.72308" lon="5.18972">
        <ele>431</ele>
        <time>2022-11-17T10:03:27Z</time>
      </trkpt>
      <trkpt lat="44.72307" lon="5.18935">
        <ele>433</ele>
        <time>2022-11-17T10:03:27Z</time>
      </trkpt>
      <trkpt lat="44.72312" lon="5.1891">
        <ele>434</ele>
        <time>2022-11-17T10:03:27Z</time>
      </trkpt>
      <trkpt lat="44.72318" lon="5.18896">
        <ele>435</ele>
        <time>2022-11-17T10:03:27Z</time>
      </trkpt>
      <trkpt lat="44.72425" lon="5.18752">
        <ele>436</ele>
        <time>2022-11-17T10:03:27Z</time>
      </trkpt>
      <trkpt lat="44.7243" lon="5.18738">
        <ele>437</ele>
        <time>2022-11-17T10:03:27Z</time>
      </trkpt>
      <trkpt lat="44.7243" lon="5.18714">
        <ele>438</ele>
        <time>2022-11-17T10:03:27Z</time>
      </trkpt>
      <trkpt lat="44.725" lon="5.18579">
        <ele>443</ele>
        <time>2022-11-17T10:03:27Z</time>
      </trkpt>
      <trkpt lat="44.72508" lon="5.18573">
        <ele>447</ele>
        <time>2022-11-17T10:03:27Z</time>
      </trkpt>
      <trkpt lat="44.72527" lon="5.18572">
        <ele>450</ele>
        <time>2022-11-17T10:03:27Z</time>
      </trkpt>
      <trkpt lat="44.72548" lon="5.1858">
        <ele>453</ele>
        <time>2022-11-17T10:03:27Z</time>
      </trkpt>
      <trkpt lat="44.72572" lon="5.18565">
        <ele>456</ele>
        <time>2022-11-17T10:03:27Z</time>
      </trkpt>
      <trkpt lat="44.72594" lon="5.18565">
        <ele>459</ele>
        <time>2022-11-17T10:03:27Z</time>
      </trkpt>
      <trkpt lat="44.72608" lon="5.18557">
        <ele>461</ele>
        <time>2022-11-17T10:03:27Z</time>
      </trkpt>
      <trkpt lat="44.72612" lon="5.18534">
        <ele>463</ele>
        <time>2022-11-17T10:03:27Z</time>
      </trkpt>
      <trkpt lat="44.72612" lon="5.18518">
        <ele>464</ele>
        <time>2022-11-17T10:03:27Z</time>
      </trkpt>
      <trkpt lat="44.72624" lon="5.18468">
        <ele>466</ele>
        <time>2022-11-17T10:03:27Z</time>
      </trkpt>
      <trkpt lat="44.72657" lon="5.18398">
        <ele>470</ele>
        <time>2022-11-17T10:03:27Z</time>
      </trkpt>
      <trkpt lat="44.7268" lon="5.18374">
        <ele>474</ele>
        <time>2022-11-17T10:03:27Z</time>
      </trkpt>
      <trkpt lat="44.72733" lon="5.18344">
        <ele>477</ele>
        <time>2022-11-17T10:03:27Z</time>
      </trkpt>
      <trkpt lat="44.72756" lon="5.18303">
        <ele>482</ele>
        <time>2022-11-17T10:03:27Z</time>
      </trkpt>
      <trkpt lat="44.72817" lon="5.18233">
        <ele>488</ele>
        <time>2022-11-17T10:03:27Z</time>
      </trkpt>
      <trkpt lat="44.72832" lon="5.18208">
        <ele>494</ele>
        <time>2022-11-17T10:03:27Z</time>
      </trkpt>
      <trkpt lat="44.72839" lon="5.18204">
        <ele>497</ele>
        <time>2022-11-17T10:03:27Z</time>
      </trkpt>
      <trkpt lat="44.72848" lon="5.18204">
        <ele>500</ele>
        <time>2022-11-17T10:03:27Z</time>
      </trkpt>
      <trkpt lat="44.72857" lon="5.18212">
        <ele>502</ele>
        <time>2022-11-17T10:03:27Z</time>
      </trkpt>
      <trkpt lat="44.72865" lon="5.18224">
        <ele>503</ele>
        <time>2022-11-17T10:03:27Z</time>
      </trkpt>
      <trkpt lat="44.72877" lon="5.18257">
        <ele>505</ele>
        <time>2022-11-17T10:03:27Z</time>
      </trkpt>
      <trkpt lat="44.72885" lon="5.18263">
        <ele>506</ele>
        <time>2022-11-17T10:03:27Z</time>
      </trkpt>
      <trkpt lat="44.72892" lon="5.18263">
        <ele>506</ele>
        <time>2022-11-17T10:03:27Z</time>
      </trkpt>
      <trkpt lat="44.72974" lon="5.18149">
        <ele>506</ele>
        <time>2022-11-17T10:03:27Z</time>
      </trkpt>
      <trkpt lat="44.72987" lon="5.18144">
        <ele>505</ele>
        <time>2022-11-17T10:03:27Z</time>
      </trkpt>
      <trkpt lat="44.72996" lon="5.18146">
        <ele>504</ele>
        <time>2022-11-17T10:03:27Z</time>
      </trkpt>
      <trkpt lat="44.73003" lon="5.18153">
        <ele>503</ele>
        <time>2022-11-17T10:03:27Z</time>
      </trkpt>
      <trkpt lat="44.73008" lon="5.18162">
        <ele>503</ele>
        <time>2022-11-17T10:03:27Z</time>
      </trkpt>
      <trkpt lat="44.73028" lon="5.18235">
        <ele>505</ele>
        <time>2022-11-17T10:03:27Z</time>
      </trkpt>
      <trkpt lat="44.73029" lon="5.18352">
        <ele>508</ele>
        <time>2022-11-17T10:03:27Z</time>
      </trkpt>
      <trkpt lat="44.73026" lon="5.1843">
        <ele>509</ele>
        <time>2022-11-17T10:03:27Z</time>
      </trkpt>
      <trkpt lat="44.73029" lon="5.18442">
        <ele>510</ele>
        <time>2022-11-17T10:03:27Z</time>
      </trkpt>
      <trkpt lat="44.73034" lon="5.18451">
        <ele>510</ele>
        <time>2022-11-17T10:03:27Z</time>
      </trkpt>
      <trkpt lat="44.73042" lon="5.18457">
        <ele>511</ele>
        <time>2022-11-17T10:03:27Z</time>
      </trkpt>
      <trkpt lat="44.7306" lon="5.18459">
        <ele>511</ele>
        <time>2022-11-17T10:03:27Z</time>
      </trkpt>
      <trkpt lat="44.73069" lon="5.18463">
        <ele>515</ele>
        <time>2022-11-17T10:03:27Z</time>
      </trkpt>
      <trkpt lat="44.73083" lon="5.18479">
        <ele>515</ele>
        <time>2022-11-17T10:03:27Z</time>
      </trkpt>
      <trkpt lat="44.73104" lon="5.18518">
        <ele>515</ele>
        <time>2022-11-17T10:03:27Z</time>
      </trkpt>
      <trkpt lat="44.73111" lon="5.18524">
        <ele>515</ele>
        <time>2022-11-17T10:03:27Z</time>
      </trkpt>
      <trkpt lat="44.7312" lon="5.18523">
        <ele>515</ele>
        <time>2022-11-17T10:03:27Z</time>
      </trkpt>
      <trkpt lat="44.73127" lon="5.18516">
        <ele>514</ele>
        <time>2022-11-17T10:03:27Z</time>
      </trkpt>
      <trkpt lat="44.73131" lon="5.18481">
        <ele>514</ele>
        <time>2022-11-17T10:03:27Z</time>
      </trkpt>
      <trkpt lat="44.73127" lon="5.18431">
        <ele>515</ele>
        <time>2022-11-17T10:03:27Z</time>
      </trkpt>
      <trkpt lat="44.7313" lon="5.18418">
        <ele>516</ele>
        <time>2022-11-17T10:03:27Z</time>
      </trkpt>
      <trkpt lat="44.73166" lon="5.18352">
        <ele>519</ele>
        <time>2022-11-17T10:03:27Z</time>
      </trkpt>
      <trkpt lat="44.73184" lon="5.1834">
        <ele>521</ele>
        <time>2022-11-17T10:03:27Z</time>
      </trkpt>
      <trkpt lat="44.73219" lon="5.18343">
        <ele>521</ele>
        <time>2022-11-17T10:03:27Z</time>
      </trkpt>
      <trkpt lat="44.73228" lon="5.1834">
        <ele>521</ele>
        <time>2022-11-17T10:03:27Z</time>
      </trkpt>
      <trkpt lat="44.73234" lon="5.18331">
        <ele>521</ele>
        <time>2022-11-17T10:03:27Z</time>
      </trkpt>
      <trkpt lat="44.73261" lon="5.18136">
        <ele>522</ele>
        <time>2022-11-17T10:03:27Z</time>
      </trkpt>
      <trkpt lat="44.7326" lon="5.18109">
        <ele>523</ele>
        <time>2022-11-17T10:03:27Z</time>
      </trkpt>
      <trkpt lat="44.73256" lon="5.18096">
        <ele>524</ele>
        <time>2022-11-17T10:03:27Z</time>
      </trkpt>
      <trkpt lat="44.73254" lon="5.18085">
        <ele>525</ele>
        <time>2022-11-17T10:03:27Z</time>
      </trkpt>
      <trkpt lat="44.73256" lon="5.18071">
        <ele>526</ele>
        <time>2022-11-17T10:03:27Z</time>
      </trkpt>
      <trkpt lat="44.73266" lon="5.1806">
        <ele>526</ele>
        <time>2022-11-17T10:03:27Z</time>
      </trkpt>
      <trkpt lat="44.73277" lon="5.18056">
        <ele>526</ele>
        <time>2022-11-17T10:03:27Z</time>
      </trkpt>
      <trkpt lat="44.73285" lon="5.18051">
        <ele>526</ele>
        <time>2022-11-17T10:03:27Z</time>
      </trkpt>
      <trkpt lat="44.73291" lon="5.1804">
        <ele>526</ele>
        <time>2022-11-17T10:03:27Z</time>
      </trkpt>
      <trkpt lat="44.73303" lon="5.17988">
        <ele>527</ele>
        <time>2022-11-17T10:03:27Z</time>
      </trkpt>
      <trkpt lat="44.73309" lon="5.17979">
        <ele>528</ele>
        <time>2022-11-17T10:03:27Z</time>
      </trkpt>
      <trkpt lat="44.73338" lon="5.17951">
        <ele>530</ele>
        <time>2022-11-17T10:03:27Z</time>
      </trkpt>
      <trkpt lat="44.73347" lon="5.1795">
        <ele>531</ele>
        <time>2022-11-17T10:03:27Z</time>
      </trkpt>
      <trkpt lat="44.73356" lon="5.17965">
        <ele>533</ele>
        <time>2022-11-17T10:03:27Z</time>
      </trkpt>
      <trkpt lat="44.73374" lon="5.18046">
        <ele>535</ele>
        <time>2022-11-17T10:03:27Z</time>
      </trkpt>
      <trkpt lat="44.73383" lon="5.18056">
        <ele>536</ele>
        <time>2022-11-17T10:03:27Z</time>
      </trkpt>
      <trkpt lat="44.73391" lon="5.18051">
        <ele>536</ele>
        <time>2022-11-17T10:03:27Z</time>
      </trkpt>
      <trkpt lat="44.73411" lon="5.18028">
        <ele>537</ele>
        <time>2022-11-17T10:03:27Z</time>
      </trkpt>
      <trkpt lat="44.73427" lon="5.18021">
        <ele>538</ele>
        <time>2022-11-17T10:03:27Z</time>
      </trkpt>
      <trkpt lat="44.7344" lon="5.1802">
        <ele>538</ele>
        <time>2022-11-17T10:03:27Z</time>
      </trkpt>
      <trkpt lat="44.73452" lon="5.18024">
        <ele>539</ele>
        <time>2022-11-17T10:03:27Z</time>
      </trkpt>
      <trkpt lat="44.73457" lon="5.18032">
        <ele>539</ele>
        <time>2022-11-17T10:03:27Z</time>
      </trkpt>
      <trkpt lat="44.73467" lon="5.18066">
        <ele>539</ele>
        <time>2022-11-17T10:03:27Z</time>
      </trkpt>
      <trkpt lat="44.7348" lon="5.18075">
        <ele>539</ele>
        <time>2022-11-17T10:03:27Z</time>
      </trkpt>
      <trkpt lat="44.73488" lon="5.18073">
        <ele>539</ele>
        <time>2022-11-17T10:03:27Z</time>
      </trkpt>
      <trkpt lat="44.73505" lon="5.18056">
        <ele>540</ele>
        <time>2022-11-17T10:03:27Z</time>
      </trkpt>
      <trkpt lat="44.73605" lon="5.1802">
        <ele>542</ele>
        <time>2022-11-17T10:03:27Z</time>
      </trkpt>
      <trkpt lat="44.7363" lon="5.18024">
        <ele>544</ele>
        <time>2022-11-17T10:03:27Z</time>
      </trkpt>
      <trkpt lat="44.73723" lon="5.1809">
        <ele>546</ele>
        <time>2022-11-17T10:03:27Z</time>
      </trkpt>
      <trkpt lat="44.73666" lon="5.1799">
        <ele>551</ele>
        <time>2022-11-17T10:03:27Z</time>
      </trkpt>
      <trkpt lat="44.73663" lon="5.1798">
        <ele>553</ele>
        <time>2022-11-17T10:03:27Z</time>
      </trkpt>
      <trkpt lat="44.73654" lon="5.17971">
        <ele>555</ele>
        <time>2022-11-17T10:03:27Z</time>
      </trkpt>
      <trkpt lat="44.73552" lon="5.17934">
        <ele>561</ele>
        <time>2022-11-17T10:03:27Z</time>
      </trkpt>
      <trkpt lat="44.73541" lon="5.17925">
        <ele>564</ele>
        <time>2022-11-17T10:03:27Z</time>
      </trkpt>
      <trkpt lat="44.73533" lon="5.17903">
        <ele>567</ele>
        <time>2022-11-17T10:03:27Z</time>
      </trkpt>
      <trkpt lat="44.73521" lon="5.17886">
        <ele>569</ele>
        <time>2022-11-17T10:03:27Z</time>
      </trkpt>
      <trkpt lat="44.73495" lon="5.17866">
        <ele>577</ele>
        <time>2022-11-17T10:03:27Z</time>
      </trkpt>
      <trkpt lat="44.73475" lon="5.17858">
        <ele>577</ele>
        <time>2022-11-17T10:03:27Z</time>
      </trkpt>
      <trkpt lat="44.73464" lon="5.17857">
        <ele>578</ele>
        <time>2022-11-17T10:03:27Z</time>
      </trkpt>
      <trkpt lat="44.734" lon="5.17796">
        <ele>580</ele>
        <time>2022-11-17T10:03:27Z</time>
      </trkpt>
      <trkpt lat="44.7336" lon="5.17793">
        <ele>582</ele>
        <time>2022-11-17T10:03:27Z</time>
      </trkpt>
      <trkpt lat="44.73303" lon="5.17807">
        <ele>585</ele>
        <time>2022-11-17T10:03:27Z</time>
      </trkpt>
      <trkpt lat="44.73263" lon="5.17835">
        <ele>586</ele>
        <time>2022-11-17T10:03:27Z</time>
      </trkpt>
      <trkpt lat="44.73245" lon="5.17837">
        <ele>588</ele>
        <time>2022-11-17T10:03:27Z</time>
      </trkpt>
      <trkpt lat="44.73237" lon="5.17831">
        <ele>589</ele>
        <time>2022-11-17T10:03:27Z</time>
      </trkpt>
      <trkpt lat="44.73172" lon="5.17722">
        <ele>590</ele>
        <time>2022-11-17T10:03:27Z</time>
      </trkpt>
      <trkpt lat="44.73141" lon="5.17695">
        <ele>591</ele>
        <time>2022-11-17T10:03:27Z</time>
      </trkpt>
      <trkpt lat="44.73097" lon="5.1769">
        <ele>592</ele>
        <time>2022-11-17T10:03:27Z</time>
      </trkpt>
      <trkpt lat="44.73006" lon="5.17753">
        <ele>591</ele>
        <time>2022-11-17T10:03:27Z</time>
      </trkpt>
      <trkpt lat="44.73004" lon="5.1767">
        <ele>592</ele>
        <time>2022-11-17T10:03:27Z</time>
      </trkpt>
      <trkpt lat="44.72992" lon="5.17636">
        <ele>591</ele>
        <time>2022-11-17T10:03:27Z</time>
      </trkpt>
      <trkpt lat="44.72941" lon="5.17537">
        <ele>588</ele>
        <time>2022-11-17T10:03:27Z</time>
      </trkpt>
      <trkpt lat="44.72894" lon="5.17505">
        <ele>582</ele>
        <time>2022-11-17T10:03:27Z</time>
      </trkpt>
      <trkpt lat="44.72808" lon="5.1746">
        <ele>578</ele>
        <time>2022-11-17T10:03:27Z</time>
      </trkpt>
      <trkpt lat="44.72795" lon="5.17444">
        <ele>576</ele>
        <time>2022-11-17T10:03:27Z</time>
      </trkpt>
      <trkpt lat="44.7277" lon="5.1738">
        <ele>576</ele>
      </trkpt>
      <trkpt lat="44.72745" lon="5.17316">
        <ele>578</ele>
        <time>2022-11-17T10:03:27Z</time>
      </trkpt>
      <trkpt lat="44.72742" lon="5.17299">
        <ele>581</ele>
        <time>2022-11-17T10:03:27Z</time>
      </trkpt>
      <trkpt lat="44.72744" lon="5.17288">
        <ele>583</ele>
        <time>2022-11-17T10:03:27Z</time>
      </trkpt>
      <trkpt lat="44.72753" lon="5.17261">
        <ele>584</ele>
        <time>2022-11-17T10:03:27Z</time>
      </trkpt>
      <trkpt lat="44.72764" lon="5.17182">
        <ele>587</ele>
      </trkpt>
      <trkpt lat="44.72774" lon="5.17103">
        <ele>589</ele>
        <time>2022-11-17T10:03:27Z</time>
      </trkpt>
      <trkpt lat="44.72763" lon="5.17046">
        <ele>592</ele>
        <time>2022-11-17T10:03:27Z</time>
      </trkpt>
      <trkpt lat="44.72763" lon="5.17027">
        <ele>595</ele>
        <time>2022-11-17T10:03:27Z</time>
      </trkpt>
      <trkpt lat="44.72766" lon="5.17014">
        <ele>597</ele>
        <time>2022-11-17T10:03:27Z</time>
      </trkpt>
      <trkpt lat="44.72776" lon="5.16992">
        <ele>599</ele>
        <time>2022-11-17T10:03:27Z</time>
      </trkpt>
      <trkpt lat="44.72824" lon="5.16928">
        <ele>601</ele>
        <time>2022-11-17T10:03:27Z</time>
      </trkpt>
      <trkpt lat="44.72877" lon="5.16814">
        <ele>606</ele>
      </trkpt>
      <trkpt lat="44.7293" lon="5.167">
        <ele>612</ele>
        <time>2022-11-17T10:03:27Z</time>
      </trkpt>
      <trkpt lat="44.72933" lon="5.16684">
        <ele>616</ele>
        <time>2022-11-17T10:03:27Z</time>
      </trkpt>
      <trkpt lat="44.72933" lon="5.16673">
        <ele>618</ele>
        <time>2022-11-17T10:03:27Z</time>
      </trkpt>
      <trkpt lat="44.72927" lon="5.16662">
        <ele>620</ele>
        <time>2022-11-17T10:03:27Z</time>
      </trkpt>
      <trkpt lat="44.72875" lon="5.1674">
        <ele>623</ele>
      </trkpt>
      <trkpt lat="44.72822" lon="5.16818">
        <ele>627</ele>
        <time>2022-11-17T10:03:27Z</time>
      </trkpt>
      <trkpt lat="44.72776" lon="5.16874">
        <ele>632</ele>
      </trkpt>
      <trkpt lat="44.7273" lon="5.16929">
        <ele>636</ele>
        <time>2022-11-17T10:03:27Z</time>
      </trkpt>
      <trkpt lat="44.72692" lon="5.16941">
        <ele>641</ele>
        <time>2022-11-17T10:03:27Z</time>
      </trkpt>
      <trkpt lat="44.72642" lon="5.16929">
        <ele>643</ele>
        <time>2022-11-17T10:03:27Z</time>
      </trkpt>
      <trkpt lat="44.72591" lon="5.16896">
        <ele>644</ele>
      </trkpt>
      <trkpt lat="44.72539" lon="5.16862">
        <ele>644</ele>
        <time>2022-11-17T10:03:27Z</time>
      </trkpt>
      <trkpt lat="44.72501" lon="5.16853">
        <ele>645</ele>
        <time>2022-11-17T10:03:27Z</time>
      </trkpt>
      <trkpt lat="44.72437" lon="5.16809">
        <ele>645</ele>
        <time>2022-11-17T10:03:27Z</time>
      </trkpt>
      <trkpt lat="44.7235" lon="5.1681">
        <ele>647</ele>
        <time>2022-11-17T10:03:27Z</time>
      </trkpt>
      <trkpt lat="44.72311" lon="5.1683">
        <ele>648</ele>
        <time>2022-11-17T10:03:27Z</time>
      </trkpt>
      <trkpt lat="44.72306" lon="5.16843">
        <ele>648</ele>
        <time>2022-11-17T10:03:27Z</time>
      </trkpt>
      <trkpt lat="44.7231" lon="5.16939">
        <ele>649</ele>
        <time>2022-11-17T10:03:27Z</time>
      </trkpt>
      <trkpt lat="44.72308" lon="5.16955">
        <ele>649</ele>
        <time>2022-11-17T10:03:27Z</time>
      </trkpt>
      <trkpt lat="44.72284" lon="5.17023">
        <ele>646</ele>
        <time>2022-11-17T10:03:27Z</time>
      </trkpt>
      <trkpt lat="44.72257" lon="5.1714">
        <ele>637</ele>
        <time>2022-11-17T10:03:27Z</time>
      </trkpt>
      <trkpt lat="44.72257" lon="5.17156">
        <ele>632</ele>
        <time>2022-11-17T10:03:27Z</time>
      </trkpt>
      <trkpt lat="44.72247" lon="5.17237">
        <ele>625</ele>
        <time>2022-11-17T10:03:27Z</time>
      </trkpt>
      <trkpt lat="44.72241" lon="5.17247">
        <ele>621</ele>
        <time>2022-11-17T10:03:27Z</time>
      </trkpt>
      <trkpt lat="44.72233" lon="5.17242">
        <ele>605</ele>
        <time>2022-11-17T10:03:27Z</time>
      </trkpt>
      <trkpt lat="44.72225" lon="5.17241">
        <ele>605</ele>
        <time>2022-11-17T10:03:27Z</time>
      </trkpt>
      <trkpt lat="44.72202" lon="5.17267">
        <ele>606</ele>
        <time>2022-11-17T10:03:27Z</time>
      </trkpt>
      <trkpt lat="44.7219" lon="5.17268">
        <ele>607</ele>
        <time>2022-11-17T10:03:27Z</time>
      </trkpt>
      <trkpt lat="44.72149" lon="5.173">
        <ele>610</ele>
        <time>2022-11-17T10:03:27Z</time>
      </trkpt>
      <trkpt lat="44.72141" lon="5.17311">
        <ele>612</ele>
        <time>2022-11-17T10:03:27Z</time>
      </trkpt>
      <trkpt lat="44.72133" lon="5.17316">
        <ele>613</ele>
        <time>2022-11-17T10:03:27Z</time>
      </trkpt>
      <trkpt lat="44.72097" lon="5.17316">
        <ele>613</ele>
        <time>2022-11-17T10:03:27Z</time>
      </trkpt>
      <trkpt lat="44.71866" lon="5.17422">
        <ele>595</ele>
        <time>2022-11-17T10:03:27Z</time>
      </trkpt>
      <trkpt lat="44.71852" lon="5.17436">
        <ele>585</ele>
        <time>2022-11-17T10:03:27Z</time>
      </trkpt>
      <trkpt lat="44.71864" lon="5.17444">
        <ele>579</ele>
        <time>2022-11-17T10:03:27Z</time>
      </trkpt>
      <trkpt lat="44.71883" lon="5.17446">
        <ele>574</ele>
        <time>2022-11-17T10:03:27Z</time>
      </trkpt>
      <trkpt lat="44.71832" lon="5.1747">
        <ele>568</ele>
        <time>2022-11-17T10:03:27Z</time>
      </trkpt>
      <trkpt lat="44.71713" lon="5.17479">
        <ele>562</ele>
        <time>2022-11-17T10:03:27Z</time>
      </trkpt>
      <trkpt lat="44.7169" lon="5.17502">
        <ele>556</ele>
        <time>2022-11-17T10:03:27Z</time>
      </trkpt>
      <trkpt lat="44.71669" lon="5.17506">
        <ele>553</ele>
        <time>2022-11-17T10:03:27Z</time>
      </trkpt>
      <trkpt lat="44.71633" lon="5.17498">
        <ele>552</ele>
        <time>2022-11-17T10:03:27Z</time>
      </trkpt>
      <trkpt lat="44.71615" lon="5.17499">
        <ele>550</ele>
        <time>2022-11-17T10:03:27Z</time>
      </trkpt>
      <trkpt lat="44.71532" lon="5.17558">
        <ele>543</ele>
        <time>2022-11-17T10:03:27Z</time>
      </trkpt>
      <trkpt lat="44.715" lon="5.17561">
        <ele>539</ele>
        <time>2022-11-17T10:03:27Z</time>
      </trkpt>
      <trkpt lat="44.71459" lon="5.17621">
        <ele>530</ele>
        <time>2022-11-17T10:03:27Z</time>
      </trkpt>
      <trkpt lat="44.71485" lon="5.1766">
        <ele>522</ele>
        <time>2022-11-17T10:03:27Z</time>
      </trkpt>
      <trkpt lat="44.71487" lon="5.17686">
        <ele>515</ele>
        <time>2022-11-17T10:03:27Z</time>
      </trkpt>
      <trkpt lat="44.71477" lon="5.1769">
        <ele>510</ele>
        <time>2022-11-17T10:03:27Z</time>
      </trkpt>
      <trkpt lat="44.71461" lon="5.17683">
        <ele>507</ele>
        <time>2022-11-17T10:03:27Z</time>
      </trkpt>
      <trkpt lat="44.71416" lon="5.17642">
        <ele>505</ele>
        <time>2022-11-17T10:03:27Z</time>
      </trkpt>
      <trkpt lat="44.71395" lon="5.17645">
        <ele>503</ele>
        <time>2022-11-17T10:03:27Z</time>
      </trkpt>
      <trkpt lat="44.71398" lon="5.17664">
        <ele>500</ele>
        <time>2022-11-17T10:03:27Z</time>
      </trkpt>
      <trkpt lat="44.71471" lon="5.17757">
        <ele>495</ele>
        <time>2022-11-17T10:03:27Z</time>
      </trkpt>
      <trkpt lat="44.71477" lon="5.17776">
        <ele>491</ele>
        <time>2022-11-17T10:03:27Z</time>
      </trkpt>
      <trkpt lat="44.71476" lon="5.17796">
        <ele>487</ele>
        <time>2022-11-17T10:03:27Z</time>
      </trkpt>
      <trkpt lat="44.71472" lon="5.17816">
        <ele>484</ele>
        <time>2022-11-17T10:03:27Z</time>
      </trkpt>
      <trkpt lat="44.7146" lon="5.17827">
        <ele>480</ele>
        <time>2022-11-17T10:03:27Z</time>
      </trkpt>
      <trkpt lat="44.71444" lon="5.17831">
        <ele>476</ele>
        <time>2022-11-17T10:03:27Z</time>
      </trkpt>
      <trkpt lat="44.71428" lon="5.17844">
        <ele>472</ele>
        <time>2022-11-17T10:03:27Z</time>
      </trkpt>
      <trkpt lat="44.71423" lon="5.17877">
        <ele>467</ele>
        <time>2022-11-17T10:03:27Z</time>
      </trkpt>
      <trkpt lat="44.71423" lon="5.17918">
        <ele>462</ele>
        <time>2022-11-17T10:03:27Z</time>
      </trkpt>
      <trkpt lat="44.71414" lon="5.17941">
        <ele>458</ele>
        <time>2022-11-17T10:03:27Z</time>
      </trkpt>
      <trkpt lat="44.71405" lon="5.1805">
        <ele>452</ele>
        <time>2022-11-17T10:03:27Z</time>
      </trkpt>
      <trkpt lat="44.71424" lon="5.1809">
        <ele>445</ele>
        <time>2022-11-17T10:03:27Z</time>
      </trkpt>
      <trkpt lat="44.7145" lon="5.18251">
        <ele>433</ele>
        <time>2022-11-17T10:03:27Z</time>
      </trkpt>
      <trkpt lat="44.71501" lon="5.18311">
        <ele>421</ele>
        <time>2022-11-17T10:03:27Z</time>
      </trkpt>
      <trkpt lat="44.71506" lon="5.18368">
        <ele>413</ele>
        <time>2022-11-17T10:03:27Z</time>
      </trkpt>
      <trkpt lat="44.7152" lon="5.18404">
        <ele>406</ele>
        <time>2022-11-17T10:03:27Z</time>
      </trkpt>
      <trkpt lat="44.71489" lon="5.18515">
        <ele>403</ele>
        <time>2022-11-17T10:03:27Z</time>
      </trkpt>
      <trkpt lat="44.71487" lon="5.18539">
        <ele>401</ele>
        <time>2022-11-17T10:03:27Z</time>
      </trkpt>
      <trkpt lat="44.71488" lon="5.18572">
        <ele>399</ele>
        <time>2022-11-17T10:03:27Z</time>
      </trkpt>
      <trkpt lat="44.71415" lon="5.18543">
        <ele>400</ele>
        <time>2022-11-17T10:03:27Z</time>
      </trkpt>
      <trkpt lat="44.71349" lon="5.18549">
        <ele>399</ele>
        <time>2022-11-17T10:03:27Z</time>
      </trkpt>
      <trkpt lat="44.71332" lon="5.18559">
        <ele>399</ele>
        <time>2022-11-17T10:03:27Z</time>
      </trkpt>
      <trkpt lat="44.71303" lon="5.1856">
        <ele>398</ele>
        <time>2022-11-17T10:03:27Z</time>
      </trkpt>
      <trkpt lat="44.71288" lon="5.18557">
        <ele>399</ele>
        <time>2022-11-17T10:03:27Z</time>
      </trkpt>
      <trkpt lat="44.71277" lon="5.18561">
        <ele>399</ele>
        <time>2022-11-17T10:03:27Z</time>
      </trkpt>
      <trkpt lat="44.71219" lon="5.18664">
        <ele>400</ele>
        <time>2022-11-17T10:03:27Z</time>
      </trkpt>
      <trkpt lat="44.71214" lon="5.18676">
        <ele>400</ele>
        <time>2022-11-17T10:03:27Z</time>
      </trkpt>
      <trkpt lat="44.71182" lon="5.18725">
        <ele>400</ele>
        <time>2022-11-17T10:03:27Z</time>
      </trkpt>
      <trkpt lat="44.71169" lon="5.18717">
        <ele>400</ele>
        <time>2022-11-17T10:03:27Z</time>
      </trkpt>
      <trkpt lat="44.71157" lon="5.18701">
        <ele>401</ele>
        <time>2022-11-17T10:03:27Z</time>
      </trkpt>
      <trkpt lat="44.71154" lon="5.18687">
        <ele>401</ele>
        <time>2022-11-17T10:03:27Z</time>
      </trkpt>
      <trkpt lat="44.71131" lon="5.18653">
        <ele>402</ele>
        <time>2022-11-17T10:03:27Z</time>
      </trkpt>
      <trkpt lat="44.71095" lon="5.18628">
        <ele>400</ele>
        <time>2022-11-17T10:03:27Z</time>
      </trkpt>
      <trkpt lat="44.71089" lon="5.18613">
        <ele>400</ele>
        <time>2022-11-17T10:03:27Z</time>
      </trkpt>
      <trkpt lat="44.71081" lon="5.18607">
        <ele>400</ele>
        <time>2022-11-17T10:03:27Z</time>
      </trkpt>
      <trkpt lat="44.7107" lon="5.1861">
        <ele>400</ele>
        <time>2022-11-17T10:03:27Z</time>
      </trkpt>
      <trkpt lat="44.70966" lon="5.18717">
        <ele>400</ele>
      </trkpt>
      <trkpt lat="44.70862" lon="5.18823">
        <ele>399</ele>
        <time>2022-11-17T10:03:27Z</time>
      </trkpt>
      <trkpt lat="44.70791" lon="5.1879">
        <ele>397</ele>
        <time>2022-11-17T10:03:27Z</time>
      </trkpt>
      <trkpt lat="44.70688" lon="5.18786">
        <ele>390</ele>
        <time>2022-11-17T10:03:27Z</time>
      </trkpt>
      <trkpt lat="44.70611" lon="5.18836">
        <ele>384</ele>
      </trkpt>
      <trkpt lat="44.70534" lon="5.18885">
        <ele>380</ele>
        <time>2022-11-17T10:03:27Z</time>
      </trkpt>
      <trkpt lat="44.70457" lon="5.18977">
        <ele>373</ele>
        <time>2022-11-17T10:03:27Z</time>
      </trkpt>
      <trkpt lat="44.7043" lon="5.18998">
        <ele>369</ele>
        <time>2022-11-17T10:03:27Z</time>
      </trkpt>
      <trkpt lat="44.70335" lon="5.19089">
        <ele>360</ele>
        <time>2022-11-17T10:03:27Z</time>
      </trkpt>
      <trkpt lat="44.70218" lon="5.1917">
        <ele>351</ele>
      </trkpt>
      <trkpt lat="44.70159" lon="5.1921">
        <ele>343</ele>
      </trkpt>
      <trkpt lat="44.701" lon="5.1925">
        <ele>337</ele>
        <time>2022-11-17T10:03:27Z</time>
      </trkpt>
      <trkpt lat="44.7002" lon="5.19278">
        <ele>330</ele>
        <time>2022-11-17T10:03:27Z</time>
      </trkpt>
      <trkpt lat="44.69953" lon="5.19267">
        <ele>324</ele>
        <time>2022-11-17T10:03:27Z</time>
      </trkpt>
      <trkpt lat="44.69935" lon="5.19273">
        <ele>319</ele>
        <time>2022-11-17T10:03:27Z</time>
      </trkpt>
      <trkpt lat="44.6991" lon="5.19271">
        <ele>315</ele>
        <time>2022-11-17T10:03:27Z</time>
      </trkpt>
      <trkpt lat="44.69916" lon="5.19281">
        <ele>312</ele>
        <time>2022-11-17T10:03:27Z</time>
      </trkpt>
      <trkpt lat="44.69929" lon="5.19292">
        <ele>309</ele>
        <time>2022-11-17T10:03:27Z</time>
      </trkpt>
      <trkpt lat="44.69936" lon="5.19301">
        <ele>307</ele>
        <time>2022-11-17T10:03:27Z</time>
      </trkpt>
      <trkpt lat="44.69932" lon="5.19315">
        <ele>306</ele>
        <time>2022-11-17T10:03:27Z</time>
      </trkpt>
      <trkpt lat="44.69917" lon="5.19324">
        <ele>304</ele>
        <time>2022-11-17T10:03:27Z</time>
      </trkpt>
      <trkpt lat="44.69862" lon="5.19335">
        <ele>299</ele>
        <time>2022-11-17T10:03:27Z</time>
      </trkpt>
      <trkpt lat="44.69787" lon="5.19401">
        <ele>290</ele>
        <time>2022-11-17T10:03:27Z</time>
      </trkpt>
      <trkpt lat="44.69678" lon="5.19444">
        <ele>281</ele>
        <time>2022-11-17T10:03:27Z</time>
      </trkpt>
      <trkpt lat="44.69674" lon="5.19488">
        <ele>276</ele>
        <time>2022-11-17T10:03:27Z</time>
      </trkpt>
      <trkpt lat="44.69646" lon="5.19614">
        <ele>272</ele>
        <time>2022-11-17T10:03:27Z</time>
      </trkpt>
      <trkpt lat="44.69647" lon="5.19648">
        <ele>270</ele>
        <time>2022-11-17T10:03:27Z</time>
      </trkpt>
      <trkpt lat="44.69657" lon="5.19689">
        <ele>269</ele>
        <time>2022-11-17T10:03:27Z</time>
      </trkpt>
      <trkpt lat="44.69649" lon="5.19699">
        <ele>268</ele>
        <time>2022-11-17T10:03:27Z</time>
      </trkpt>
      <trkpt lat="44.69649" lon="5.1971">
        <ele>267</ele>
        <time>2022-11-17T10:03:27Z</time>
      </trkpt>
      <trkpt lat="44.69654" lon="5.19726">
        <ele>267</ele>
        <time>2022-11-17T10:03:27Z</time>
      </trkpt>
      <trkpt lat="44.69663" lon="5.19726">
        <ele>266</ele>
        <time>2022-11-17T10:03:27Z</time>
      </trkpt>
      <trkpt lat="44.69676" lon="5.19864">
        <ele>267</ele>
        <time>2022-11-17T10:03:27Z</time>
      </trkpt>
      <trkpt lat="44.69675" lon="5.19878">
        <ele>267</ele>
        <time>2022-11-17T10:03:27Z</time>
      </trkpt>
      <trkpt lat="44.69684" lon="5.19882">
        <ele>268</ele>
        <time>2022-11-17T10:03:27Z</time>
      </trkpt>
      <trkpt lat="44.69692" lon="5.19891">
        <ele>268</ele>
        <time>2022-11-17T10:03:27Z</time>
      </trkpt>
      <trkpt lat="44.69688" lon="5.19968">
        <ele>268</ele>
        <time>2022-11-17T10:03:27Z</time>
      </trkpt>
      <trkpt lat="44.69704" lon="5.19979">
        <ele>268</ele>
        <time>2022-11-17T10:03:27Z</time>
        <extensions>
          <visugpx:TrkExtension xmlns:visugpx="https://www.visugpx.com/editgpx/">
            <visugpx:node>1</visugpx:node>
            </visugpx:TrkExtension>
        </extensions>
      </trkpt>
    </trkseg>
  </trk>
</gpx>